• In Germany
  • List of Countries
  • For 7 days
  • Water Temperature
  • Satellite Maps
  • Weather Map
  • Weather Widgets
  • user-avatar
    Login

    Hourly Weather Santiago del Estero

    Today, 23 July, Sunday

    Time Temperature Precipitation Wind Pressure Humidity
    00:00 +20°C° 0 mm 4 mps 736 mmHg 52%
    01:00 +19°C° 0 mm 4 mps 736 mmHg 54%
    02:00 +19°C° 0 mm 4 mps 736 mmHg 56%
    03:00 +18°C° 0 mm 3 mps 736 mmHg 58%
    04:00 +18°C° 0 mm 3 mps 736 mmHg 59%
    05:00 +18°C° 0 mm 3 mps 736 mmHg 61%
    06:00 +18°C° 0 mm 2 mps 736 mmHg 61%
    07:00 +18°C° 0 mm 2 mps 737 mmHg 61%
    08:00 +18°C° 0 mm 2 mps 737 mmHg 61%
    09:00 +21°C° 0 mm 3 mps 738 mmHg 54%
    10:00 +23°C° 0 mm 4 mps 738 mmHg 47%
    11:00 +27°C° 0 mm 5 mps 738 mmHg 40%
    12:00 +28°C° 0 mm 4 mps 738 mmHg 38%
    13:00 +29°C° 0 mm 4 mps 737 mmHg 35%
    14:00 +30°C° 0 mm 3 mps 737 mmHg 33%
    15:00 +30°C° 0 mm 3 mps 737 mmHg 34%
    16:00 +30°C° 0 mm 2 mps 737 mmHg 36%
    17:00 +29°C° 0 mm 1 mps 737 mmHg 37%
    18:00 +27°C° 0 mm 1 mps 738 mmHg 42%
    19:00 +25°C° 0 mm 1 mps 738 mmHg 46%
    20:00 +23°C° 0 mm 1 mps 739 mmHg 51%
    21:00 +23°C° 0 mm 2 mps 739 mmHg 51%
    22:00 +23°C° 0 mm 2 mps 740 mmHg 52%
    23:00 +23°C° 0 mm 2 mps 740 mmHg 52%

    Tomorrow, 24 July, Monday

    Time Temperature Precipitation Wind Pressure Humidity
    00:00 +21°C° 0 mm 3 mps 740 mmHg 54%
    01:00 +21°C° 0 mm 3 mps 741 mmHg 55%
    02:00 +20°C° 0 mm 4 mps 741 mmHg 56%
    03:00 +20°C° 0 mm 4 mps 741 mmHg 58%
    04:00 +19°C° 0 mm 4 mps 741 mmHg 61%
    05:00 +17°C° 0 mm 5 mps 741 mmHg 63%
    06:00 +17°C° 0 mm 5 mps 742 mmHg 64%
    07:00 +17°C° 0 mm 5 mps 743 mmHg 65%
    08:00 +18°C° 0 mm 4 mps 743 mmHg 65%
    09:00 +19°C° 0 mm 4 mps 744 mmHg 60%
    10:00 +21°C° 0 mm 4 mps 744 mmHg 55%
    11:00 +23°C° 0 mm 4 mps 744 mmHg 50%
    12:00 +25°C° 0 mm 4 mps 744 mmHg 47%
    13:00 +26°C° 0 mm 4 mps 743 mmHg 45%
    14:00 +27°C° 0 mm 4 mps 742 mmHg 42%
    15:00 +27°C° 0 mm 4 mps 742 mmHg 44%
    16:00 +27°C° 0 mm 4 mps 742 mmHg 45%
    17:00 +26°C° 0 mm 4 mps 742 mmHg 46%
    18:00 +25°C° 0 mm 3 mps 743 mmHg 51%
    19:00 +22°C° 0 mm 3 mps 743 mmHg 56%
    20:00 +21°C° 0 mm 3 mps 744 mmHg 61%
    21:00 +20°C° 0 mm 3 mps 744 mmHg 64%
    22:00 +20°C° 0 mm 3 mps 745 mmHg 68%
    23:00 +19°C° 0 mm 3 mps 745 mmHg 71%

    Day after tomorrow, 25 July, Tuesday

    Time Temperature Precipitation Wind Pressure Humidity
    00:00 +19°C° 0 mm 3 mps 745 mmHg 75%
    01:00 +18°C° 0 mm 3 mps 745 mmHg 79%
    02:00 +18°C° 0 mm 3 mps 745 mmHg 82%
    03:00 +17°C° 0 mm 3 mps 744 mmHg 85%
    04:00 +17°C° 0 mm 3 mps 744 mmHg 87%
    05:00 +16°C° 0 mm 2 mps 744 mmHg 89%
    06:00 +16°C° 0 mm 2 mps 745 mmHg 88%
    07:00 +16°C° 0 mm 2 mps 745 mmHg 87%
    08:00 +17°C° 0 mm 2 mps 745 mmHg 86%
    09:00 +18°C° 0 mm 3 mps 745 mmHg 79%
    10:00 +19°C° 0 mm 3 mps 745 mmHg 73%
    11:00 +21°C° 0 mm 3 mps 745 mmHg 67%
    12:00 +22°C° 0 mm 3 mps 744 mmHg 63%
    13:00 +24°C° 0 mm 3 mps 743 mmHg 60%
    14:00 +25°C° 0 mm 3 mps 742 mmHg 56%
    15:00 +25°C° 0 mm 3 mps 742 mmHg 56%
    16:00 +25°C° 0 mm 3 mps 742 mmHg 57%
    17:00 +25°C° 0 mm 3 mps 742 mmHg 57%
    18:00 +24°C° 0 mm 2 mps 742 mmHg 62%
    19:00 +21°C° 0 mm 2 mps 743 mmHg 67%
    20:00 +21°C° 0 mm 1 mps 743 mmHg 73%
    21:00 +20°C° 0 mm 2 mps 743 mmHg 75%
    22:00 +19°C° 0 mm 2 mps 743 mmHg 78%
    23:00 +19°C° 0 mm 3 mps 743 mmHg 80%

    26 July, Wednesday

    Time Temperature Precipitation Wind Pressure Humidity
    00:00 +18°C° 0 mm 3 mps 743 mmHg 83%
    01:00 +18°C° 0 mm 3 mps 743 mmHg 85%
    02:00 +17°C° 0 mm 2 mps 743 mmHg 88%
    03:00 +17°C° 0 mm 2 mps 743 mmHg 89%
    04:00 +17°C° 0 mm 2 mps 743 mmHg 91%
    05:00 +16°C° 0 mm 2 mps 743 mmHg 92%
    06:00 +17°C° 0 mm 2 mps 743 mmHg 90%
    07:00 +17°C° 0 mm 2 mps 744 mmHg 88%
    08:00 +17°C° 0 mm 2 mps 744 mmHg 86%
    09:00 +20°C° 0 mm 2 mps 744 mmHg 77%
    10:00 +23°C° 0 mm 2 mps 744 mmHg 68%
    11:00 +25°C° 0 mm 1 mps 744 mmHg 59%
    12:00 +26°C° 0 mm 1 mps 743 mmHg 55%
    13:00 +28°C° 0 mm 2 mps 743 mmHg 50%
    14:00 +29°C° 0 mm 2 mps 742 mmHg 46%
    15:00 +29°C° 0 mm 2 mps 741 mmHg 45%
    16:00 +29°C° 0 mm 2 mps 741 mmHg 45%
    17:00 +29°C° 0 mm 2 mps 741 mmHg 45%
    18:00 +28°C° 0 mm 2 mps 741 mmHg 50%
    19:00 +26°C° 0 mm 2 mps 741 mmHg 55%
    20:00 +24°C° 0 mm 1 mps 741 mmHg 61%
    21:00 +24°C° 0 mm 1 mps 741 mmHg 63%
    22:00 +23°C° 0 mm 1 mps 741 mmHg 65%
    23:00 +23°C° 0 mm 1 mps 741 mmHg 67%

    27 July, Thursday

    Time Temperature Precipitation Wind Pressure Humidity
    00:00 +22°C° 0 mm 1 mps 741 mmHg 67%
    01:00 +21°C° 0 mm 2 mps 741 mmHg 68%
    02:00 +21°C° 0 mm 2 mps 740 mmHg 68%
    03:00 +20°C° 0 mm 2 mps 740 mmHg 67%
    04:00 +20°C° 0 mm 2 mps 740 mmHg 65%
    05:00 +20°C° 0 mm 2 mps 740 mmHg 63%
    06:00 +20°C° 0 mm 3 mps 740 mmHg 60%
    07:00 +21°C° 0 mm 3 mps 740 mmHg 56%
    08:00 +21°C° 0 mm 3 mps 740 mmHg 53%
    09:00 +25°C° 0 mm 5 mps 741 mmHg 44%
    10:00 +28°C° 0 mm 6 mps 741 mmHg 35%
    11:00 +32°C° 0 mm 8 mps 741 mmHg 27%
    12:00 +33°C° 0 mm 8 mps 740 mmHg 25%
    13:00 +35°C° 0 mm 9 mps 739 mmHg 24%
    14:00 +37°C° 0 mm 9 mps 738 mmHg 22%
    15:00 +37°C° 0 mm 8 mps 738 mmHg 23%
    16:00 +35°C° 0 mm 6 mps 738 mmHg 24%
    17:00 +35°C° 0 mm 5 mps 737 mmHg 24%
    18:00 +33°C° 0 mm 5 mps 738 mmHg 26%
    19:00 +32°C° 0 mm 5 mps 738 mmHg 27%
    20:00 +29°C° 0 mm 5 mps 738 mmHg 29%
    21:00 +29°C° 0 mm 5 mps 738 mmHg 29%
    22:00 +28°C° 0 mm 5 mps 738 mmHg 29%
    23:00 +28°C° 0 mm 5 mps 738 mmHg 29%

    28 July, Friday

    Time Temperature Precipitation Wind Pressure Humidity
    00:00 +28°C° 0 mm 5 mps 738 mmHg 30%
    01:00 +27°C° 0 mm 5 mps 738 mmHg 30%
    02:00 +27°C° 0 mm 5 mps 737 mmHg 30%
    03:00 +26°C° 0 mm 5 mps 737 mmHg 31%
    04:00 +26°C° 0 mm 5 mps 737 mmHg 31%
    05:00 +26°C° 0 mm 5 mps 737 mmHg 32%
    06:00 +26°C° 0 mm 5 mps 738 mmHg 32%
    07:00 +26°C° 0 mm 5 mps 738 mmHg 33%
    08:00 +26°C° 0 mm 5 mps 739 mmHg 33%
    09:00 +28°C° 0 mm 6 mps 739 mmHg 30%
    10:00 +30°C° 0 mm 7 mps 739 mmHg 27%
    11:00 +33°C° 0 mm 9 mps 739 mmHg 25%
    12:00 +34°C° 0 mm 8 mps 739 mmHg 24%
    13:00 +37°C° 0 mm 8 mps 738 mmHg 23%
    14:00 +38°C° 0 mm 8 mps 738 mmHg 22%
    15:00 +36°C° 0 mm 7 mps 738 mmHg 23%
    16:00 +36°C° 0 mm 5 mps 738 mmHg 24%
    17:00 +36°C° 0 mm 4 mps 738 mmHg 25%
    18:00 +34°C° 0 mm 4 mps 738 mmHg 27%
    19:00 +31°C° 0 mm 3 mps 739 mmHg 30%
    20:00 +29°C° 0 mm 3 mps 740 mmHg 32%
    21:00 +28°C° 0 mm 3 mps 740 mmHg 33%
    22:00 +27°C° 0 mm 2 mps 740 mmHg 34%
    23:00 +26°C° 0 mm 2 mps 741 mmHg 35%
    Show more